Scio, NY

1:34 PM EST on January 17, 2017 (GMT -0500)
Wellsville Municipal-Tarantine

Weather History for KELZ - July, 2014

Change the Weather History Date:

Monday, July 7, 2014

  Actual Average (KDSV) Record (KDSV)
Temperature  
Mean Temperature 68 °F -  
Max Temperature 78 °F 81 °F 97 °F (1952)
Min Temperature 62 °F 56 °F 42 °F (1961)
Cooling Degree Days 4    
Growing Degree Days 18 (Base 50)    
Moisture  
Dew Point 62 °F    
Average Humidity 79    
Maximum Humidity 90    
Minimum Humidity 67    
Precipitation  
Precipitation 0.64 in - - ()
Sea Level Pressure  
Sea Level Pressure 29.81 in    
Wind  
Wind Speed 9 mph (SW)    
Max Wind Speed 16 mph    
Max Gust Speed 28 mph    
Visibility 9 miles    
Events Rain , Thunderstorm    
Averages and records for this station are not official NWS values.
T = Trace of Precipitation, MM = Missing Value Source: NWS Daily Summary

Daily Weather History Graph

Daily Weather History Graph

Search for Another Location

Airport or City:

Trip Planner

Search our weather history database for the weather conditions in past years. The results will help you decide how hot, cold, wet, or windy it might be!

Date:

Astronomy

Jul. 07, 2014 Rise Set
Actual Time 5:43 AM EDT 8:50 PM EDT
Civil Twilight 5:09 AM EDT 9:24 PM EDT
Nautical Twilight 4:25 AM EDT 10:07 PM EDT
Astronomical Twilight 3:33 AM EDT 10:59 PM EDT
Moon 3:48 PM EDT (7/7) 1:38 AM EDT (7/7)
Length of Visible Light 16h 14m
Length of Day
15h 06m
Waxing Gibbous, 72% of the Moon is Illuminated
Jul 7
Waxing Gibbous
Jul 12
Full
Jul 18
Last Quarter
Jul 26
New
Aug 3
First Quarter

Hourly Weather History & Observations

Time (EDT) Temp. Dew Point Humidity Pressure Visibility Wind Dir Wind Speed Gust Speed Precip Events Conditions
12:56 AM 62.1 °F 53.1 °F 72% 29.90 in 10.0 mi West 4.6 mph - N/A   Clear
1:56 AM 62.1 °F 54.0 °F 75% 29.87 in 10.0 mi SW 5.8 mph - N/A   Scattered Clouds
2:56 AM 62.1 °F 55.0 °F 78% 29.86 in 10.0 mi SSW 6.9 mph - N/A   Scattered Clouds
3:56 AM 63.0 °F 55.9 °F 78% 29.83 in 10.0 mi SW 9.2 mph - N/A   Partly Cloudy
4:56 AM 63.0 °F 55.9 °F 78% 29.83 in 10.0 mi SW 6.9 mph - N/A   Mostly Cloudy
5:56 AM 64.0 °F 55.9 °F 75% 29.82 in 10.0 mi SW 8.1 mph - N/A   Clear
6:56 AM 64.9 °F 57.0 °F 75% 29.82 in 10.0 mi SW 9.2 mph - N/A   Clear
7:56 AM 66.9 °F 57.9 °F 73% 29.81 in 10.0 mi SW 12.7 mph 20.7 mph N/A   Scattered Clouds
8:56 AM 69.1 °F 60.1 °F 73% 29.81 in 10.0 mi SSW 15.0 mph 20.7 mph N/A   Scattered Clouds
9:56 AM 69.1 °F 60.1 °F 73% 29.83 in 10.0 mi WSW 13.8 mph 26.5 mph 0.00 in Rain Light Rain
10:11 AM 66.9 °F 61.0 °F 81% 29.85 in 10.0 mi SW 9.2 mph 19.6 mph 0.00 in Rain Light Rain
10:56 AM 68.0 °F 63.0 °F 84% 29.80 in 10.0 mi SW 3.5 mph - 0.03 in   Mostly Cloudy
11:56 AM 71.1 °F 64.0 °F 78% 29.80 in 10.0 mi SW 11.5 mph 19.6 mph 0.00 in   Scattered Clouds
12:28 PM 73.0 °F 64.9 °F 76% 29.82 in 10.0 mi SW 10.4 mph 18.4 mph N/A   Mostly Cloudy
12:56 PM 73.0 °F 64.0 °F 73% 29.78 in 10.0 mi SW 11.5 mph 18.4 mph N/A   Overcast
1:13 PM 73.9 °F 64.9 °F 73% 29.81 in 10.0 mi SW 10.4 mph - N/A   Overcast
2:56 PM 75.9 °F 64.0 °F 67% 29.76 in 10.0 mi SW 12.7 mph 27.6 mph N/A   Scattered Clouds
3:56 PM 75.9 °F 64.0 °F 67% 29.75 in 10.0 mi WSW 13.8 mph 24.2 mph N/A   Scattered Clouds
4:44 PM 73.9 °F 64.9 °F 73% 29.78 in 10.0 mi WSW 11.5 mph 20.7 mph N/A   Mostly Cloudy
4:51 PM 75.2 °F 64.4 °F 69% 29.78 in 10.0 mi SW 16.1 mph 20.7 mph N/A   Mostly Cloudy
4:56 PM 73.9 °F 64.9 °F 73% 29.74 in 8.0 mi SSW 11.5 mph 21.9 mph 0.01 in Rain Light Rain
5:02 PM 72.0 °F 66.0 °F 81% 29.78 in 1.8 mi SW 15.0 mph 20.7 mph 0.21 in Rain Heavy Rain
5:12 PM 72.0 °F 66.0 °F 81% 29.79 in 3.0 mi West 11.5 mph - 0.25 in Rain Light Rain
5:56 PM 73.0 °F 66.0 °F 79% 29.77 in 9.0 mi West 11.5 mph 16.1 mph 0.27 in Rain , Thunderstorm Light Rain
6:04 PM 70.0 °F 66.0 °F 87% 29.81 in 2.5 mi WNW 9.2 mph - 0.10 in Rain , Thunderstorm Heavy Thunderstorms and Rain
6:09 PM 69.1 °F 66.0 °F 90% 29.81 in 3.0 mi WSW 16.1 mph 23.0 mph 0.13 in Rain , Thunderstorm Thunderstorms and Rain
6:19 PM 69.1 °F 60.1 °F 73% 29.80 in 4.0 mi WSW 9.2 mph 21.9 mph 0.18 in Rain , Thunderstorm Light Thunderstorms and Rain
6:30 PM 66.9 °F 61.0 °F 81% 29.80 in 10.0 mi West 6.9 mph - 0.19 in Rain , Thunderstorm Light Rain
6:56 PM 68.0 °F 64.0 °F 87% 29.78 in 10.0 mi West 8.1 mph - 0.19 in Rain , Thunderstorm Light Rain
7:13 PM 66.9 °F 63.0 °F 87% 29.81 in 2.5 mi West 8.1 mph 19.6 mph 0.09 in Rain , Thunderstorm Heavy Thunderstorms and Rain
7:27 PM 69.1 °F 64.0 °F 84% 29.81 in 7.0 mi WSW 5.8 mph - 0.14 in Rain , Thunderstorm Light Thunderstorms and Rain
7:36 PM 69.1 °F 64.0 °F 84% 29.82 in 10.0 mi SW 4.6 mph - 0.14 in Thunderstorm Scattered Clouds
7:46 PM 69.1 °F 64.0 °F 84% 29.82 in 10.0 mi West 6.9 mph - 0.14 in   Mostly Cloudy
7:56 PM 68.0 °F 64.0 °F 87% 29.79 in 10.0 mi WSW 3.5 mph - 0.14 in   Partly Cloudy
8:56 PM 68.0 °F 64.0 °F 87% 29.79 in 10.0 mi SW 6.9 mph - N/A   Partly Cloudy
9:56 PM 69.1 °F 64.0 °F 84% 29.82 in 10.0 mi SW 12.7 mph - N/A   Clear
10:56 PM 69.1 °F 64.0 °F 84% 29.81 in 10.0 mi SW 12.7 mph - N/A   Clear
11:56 PM 70.0 °F 64.9 °F 84% 29.79 in 10.0 mi SW 13.8 mph - N/A   Mostly Cloudy